EW7961 Weather Reports


time (UTC)temp
C
wind
direction
speed
KPH
gust
KPH
rain 1hr
cm
rain 24hr
cm
rain mn
cm
humidity
%
barometer
mb
20260506215018 16 305 3.2 6.4 0.00 0.71 0.71 43 1015.9
20260506214018 17 13 4.8 11.3 0.00 0.71 0.71 43 1015.9
20260506213018 17 352 3.2 9.7 0.00 0.71 0.71 43 1015.9
20260506212018 17 286 3.2 6.4 0.00 0.71 0.71 42 1015.9
20260506211018 17 320 1.6 4.8 0.00 0.71 0.71 43 1016.0
20260506210018 17 333 3.2 11.3 0.00 0.71 0.71 43 1015.9
20260506205019 17 334 3.2 8.0 0.00 0.74 0.71 42 1016.0
20260506204018 16 329 3.2 4.8 0.00 0.74 0.71 43 1016.2
20260506203022 16 1 3.2 9.7 0.00 0.74 0.71 42 1016.4
20260506202021 16 322 3.2 8.0 0.00 0.74 0.71 44 1016.4
20260506201111 16 329 3.2 4.8 0.00 0.76 0.71 42 1016.4
20260506200142 16 311 3.2 8.0 0.00 0.76 0.71 44 1016.5
20260506195031 16 8 3.2 8.0 0.00 0.76 0.71 43 1016.5
20260506194022 16 297 4.8 11.3 0.00 0.76 0.71 44 1016.5
20260506193031 17 330 3.2 6.4 0.00 0.76 0.71 44 1016.4
20260506192031 17 326 3.2 8.0 0.00 0.76 0.71 44 1016.4
20260506191031 17 299 3.2 8.0 0.00 0.76 0.71 43 1016.2
20260506190031 16 334 3.2 6.4 0.00 0.76 0.71 45 1016.2
20260506185031 16 329 3.2 6.4 0.00 0.76 0.71 47 1016.2
20260506184017 16 271 3.2 4.8 0.00 0.76 0.71 46 1016.1
20260506183017 16 294 1.6 4.8 0.00 0.76 0.71 49 1016.3
20260506182057 15 294 3.2 4.8 0.00 0.76 0.71 50 1016.5
20260506181017 15 316 1.6 4.8 0.00 0.76 0.71 52 1016.7
20260506180017 15 306 3.2 4.8 0.00 0.76 0.71 54 1016.7
20260506175032 15 322 3.2 6.4 0.00 0.76 0.71 55 1016.6
20260506174032 14 309 3.2 6.4 0.00 0.76 0.71 57 1016.6
20260506173033 13 19 3.2 8.0 0.00 0.76 0.71 61 1016.7
20260506172019 13 263 3.2 4.8 0.00 0.76 0.71 66 1016.8
20260506171018 13 328 4.8 9.7 0.00 0.76 0.71 66 1016.8
20260506170018 13 358 6.4 12.9 0.00 0.79 0.71 67 1016.8
20260506165018 13 278 4.8 6.4 0.00 0.79 0.71 71 1016.8
20260506164018 12 271 4.8 9.7 0.00 0.79 0.71 72 1016.8
20260506163018 12 270 4.8 8.0 0.00 0.79 0.71 73 1016.8
20260506162018 12 285 4.8 8.0 0.00 0.79 0.71 74 1016.7
20260506161018 12 253 4.8 8.0 0.00 0.79 0.71 76 1016.5
20260506160138 12 339 8.0 11.3 0.00 0.79 0.71 79 1016.4
20260506155018 12 338 6.4 9.7 0.00 0.79 0.71 79 1016.2
20260506154018 12 263 4.8 8.0 0.00 0.79 0.71 81 1016.2
20260506153018 11 245 6.4 8.0 0.00 0.79 0.71 83 1016.1
20260506152019 11 255 6.4 9.7 0.00 0.79 0.71 84 1016.2
20260506151017 11 261 4.8 6.4 0.00 0.79 0.71 84 1016.0
20260506150057 11 258 6.4 8.0 0.00 0.79 0.71 86 1016.0
20260506145017 10 286 6.4 9.7 0.00 0.79 0.71 87 1015.9
20260506144019 10 295 4.8 9.7 0.00 0.79 0.71 89 1016.1
20260506143025 10 261 4.8 8.0 0.00 0.79 0.71 91 1016.1
20260506142019 10 268 4.8 6.4 0.00 0.79 0.71 92 1016.2
20260506141059 10 338 4.8 6.4 0.00 0.79 0.71 93 1016.2
20260506140017 9 284 4.8 6.4 0.00 0.79 0.71 94 1016.2
20260506135018 9 332 4.8 11.3 0.00 0.79 0.71 95 1016.1
20260506134059 8 317 4.8 4.8 0.00 0.79 0.71 96 1016.2
20260506133058 8 282 3.2 4.8 0.00 0.79 0.71 96 1016.2
20260506132018 8 348 3.2 6.4 0.00 0.79 0.71 96 1016.1
20260506131018 8 312 4.8 6.4 0.00 0.86 0.71 97 1016.0
20260506130018 8 293 3.2 4.8 0.00 0.89 0.71 97 1015.9
20260506125020 8 286 3.2 4.8 0.00 0.91 0.71 97 1016.0
20260506124018 8 325 4.8 4.8 0.00 1.02 0.71 97 1016.0
20260506123059 8 268 4.8 4.8 0.00 1.02 0.71 97 1016.0
20260506122018 8 309 3.2 4.8 0.00 1.02 0.71 97 1015.9
20260506121059 8 358 3.2 4.8 0.00 1.02 0.71 97 1015.8
20260506120059 8 320 3.2 6.4 0.00 1.02 0.71 97 1015.9
20260506115019 8 352 4.8 4.8 0.00 1.04 0.71 97 1015.9
20260506114059 8 323 3.2 4.8 0.00 1.04 0.71 97 1015.8
20260506113019 8 343 4.8 4.8 0.00 1.07 0.71 97 1015.5
20260506112100 8 346 4.8 4.8 0.00 1.07 0.71 97 1015.2
20260506111019 8 279 3.2 4.8 0.00 1.07 0.71 97 1014.7
20260506110020 8 320 3.2 4.8 0.00 1.07 0.71 97 1014.7
20260506105020 8 352 4.8 4.8 0.00 1.07 0.71 97 1014.1
20260506104100 8 321 3.2 4.8 0.00 1.07 0.71 97 1013.9
20260506103100 8 353 3.2 4.8 0.00 1.07 0.71 97 1014.3
20260506102020 8 291 3.2 3.2 0.00 1.07 0.71 97 1014.2
20260506101022 8 279 3.2 3.2 0.00 1.07 0.71 97 1014.2
20260506100020 8 279 3.2 4.8 0.00 1.07 0.71 97 1014.0
20260506095020 8 299 3.2 4.8 0.00 1.27 0.71 97 1013.8
20260506094020 8 284 3.2 4.8 0.00 1.32 0.71 97 1013.9
20260506093101 8 284 3.2 4.8 0.00 1.32 0.71 97 1014.0
20260506092021 8 339 3.2 4.8 0.00 1.32 0.71 97 1014.4
20260506091021 8 351 3.2 4.8 0.00 1.32 0.71 97 1014.5
20260506090021 8 336 3.2 4.8 0.00 1.32 0.71 97 1014.4
20260506085021 8 321 3.2 3.2 0.00 1.32 0.71 96 1014.1
20260506084101 8 290 3.2 4.8 0.00 1.32 0.71 96 1013.9
20260506083021 8 299 3.2 4.8 0.00 1.32 0.71 96 1013.9
20260506082021 8 301 3.2 4.8 0.00 1.32 0.71 96 1013.9
20260506081022 8 1 3.2 4.8 0.00 1.35 0.71 96 1013.8
20260506073022 8 352 3.2 4.8 0.03 1.37 0.71 96 1013.6
20260506072022 8 265 3.2 4.8 0.05 1.37 0.71 96 1013.9
20260506071022 8 329 3.2 4.8 0.08 1.37 0.71 96 1014.2
20260506062023 8 273 3.2 4.8 0.05 1.35 0.66 96 1013.4
20260506061023 8 1 3.2 4.8 0.03 1.32 0.64 96 1013.5
20260506051024 8 289 3.2 4.8 0.05 1.27 0.61 96 1013.5
20260506045024 8 315 3.2 4.8 0.03 1.24 0.58 95 1013.2
20260506044104 8 340 3.2 4.8 0.03 1.24 0.58 95 1013.2
20260506043024 8 306 3.2 4.8 0.03 1.24 0.56 95 1013.7
20260506042104 7 269 3.2 4.8 0.03 1.24 0.56 95 1013.5
20260506041025 7 316 3.2 3.2 0.03 1.22 0.56 95 1013.5
20260506040025 7 293 3.2 3.2 0.00 1.22 0.53 95 1013.6
20260506035025 7 313 3.2 3.2 0.00 1.22 0.53 95 1013.7
20260506034025 7 316 3.2 3.2 0.00 1.22 0.53 95 1013.7
20260506033027 7 271 3.2 3.2 0.00 1.22 0.53 95 1013.2
20260506032025 7 267 3.2 3.2 0.00 1.22 0.53 95 1013.1
20260506031105 7 297 1.6 3.2 0.05 1.22 0.53 95 1013.0
20260506030025 7 346 3.2 4.8 0.05 1.22 0.53 95 1012.6
20260506025026 7 13 3.2 4.8 0.10 1.22 0.53 95 1012.6
20260506024025 7 3 3.2 4.8 0.15 1.22 0.53 95 1013.0
20260506023026 7 359 3.2 4.8 0.18 1.22 0.53 95 1012.7
20260506022026 7 18 3.2 3.2 0.20 1.22 0.53 94 1012.7
20260506021026 7 276 3.2 4.8 0.18 1.17 0.51 94 1013.1
20260506015026 7 296 1.6 4.8 0.23 1.12 0.43 94 1012.9
20260506014026 7 44 3.2 4.8 0.20 1.07 0.41 94 1012.0
20260506013106 7 341 3.2 4.8 0.18 1.04 0.36 94 1012.6
20260506011027 7 324 3.2 6.4 0.13 0.99 0.33 93 1012.2
20260506010107 7 355 3.2 6.4 0.05 0.91 0.25 93 1011.9
20260506005026 8 308 3.2 4.8 0.03 0.89 0.23 93 1012.1
20260506004027 8 326 3.2 4.8 0.03 0.86 0.20 93 1011.7
20260506003027 8 345 3.2 4.8 0.03 0.86 0.20 93 1011.8
20260506002107 8 338 4.8 6.4 0.15 0.86 0.20 93 1011.6
20260506001023 8 329 3.2 8.0 0.20 0.86 0.20 92 1011.3
20260506000029 8 12 4.8 6.4 0.18 0.86 0.18 92 1011.5
20260505235017 8 327 4.8 8.0 0.18 0.86 0.18 92 1011.1
20260505234057 9 356 4.8 8.0 0.18 0.84 0.18 91 1010.9
20260505233017 9 341 6.4 9.7 0.18 0.84 0.18 91 1011.0
20260505232018 9 345 4.8 8.0 0.05 0.74 0.05 90 1010.9
20260505231023 9 4 4.8 9.7 0.00 0.66 0.00 89 1010.5
20260505230027 9 278 3.2 4.8 0.00 0.66 0.00 89 1010.7
20260505225027 10 3 4.8 6.4 0.00 0.66 0.66 89 1010.4
20260505224028 10 31 3.2 4.8 0.00 0.66 0.66 89 1009.9
20260505223028 9 357 4.8 6.4 0.00 0.66 0.66 89 1010.5
20260505222028 9 13 4.8 6.4 0.00 0.66 0.66 89 1010.5
20260505221018 9 355 4.8 11.3 0.00 0.66 0.66 89 1010.3
20260505220108 9 17 4.8 6.4 0.00 0.66 0.66 89 1010.3